| time (UTC) | temp F | wind direction | speed MPH | gust MPH | rain 1hr in | rain 24hr in | rain mn in | humidity % | barometer mb |
| 20260906024904 | 73 | 179 | 3.0 | 6.0 | 0.00 | 0.00 | 0.00 | 80 | 1017.3 |
| 20260906024404 | 73 | 178 | 5.0 | 8.0 | 0.00 | 0.00 | 0.00 | 80 | 1017.4 |
| 20260906023904 | 73 | 175 | 6.0 | 10.0 | 0.00 | 0.00 | 0.00 | 79 | 1017.4 |
| 20260906023404 | 74 | 175 | 6.0 | 10.0 | 0.00 | 0.00 | 0.00 | 78 | 1017.5 |
| 20260906022904 | 74 | 188 | 1.0 | 3.0 | 0.00 | 0.00 | 0.00 | 76 | 1017.5 |
| 20260906021904 | 75 | 186 | 3.0 | 3.0 | 0.00 | 0.00 | 0.00 | 75 | 1017.6 |
| 20260906021403 | 75 | 186 | 2.0 | 5.0 | 0.00 | 0.00 | 0.00 | 75 | 1017.6 |
| 20260906020404 | 75 | 161 | 3.0 | 5.0 | 0.00 | 0.00 | 0.00 | 74 | 1017.7 |
| 20260906015904 | 76 | 183 | 3.0 | 7.0 | 0.00 | 0.00 | 0.00 | 74 | 1017.8 |
| 20260906015404 | 76 | 190 | 3.0 | 6.0 | 0.00 | 0.00 | 0.00 | 73 | 1017.9 |
| 20260906014904 | 75 | 222 | 5.0 | 7.0 | 0.00 | 0.00 | 0.00 | 74 | 1017.9 |
| 20260906014404 | 75 | 207 | 4.0 | 7.0 | 0.00 | 0.00 | 0.00 | 75 | 1017.9 |
| 20260906013903 | 75 | 199 | 5.0 | 7.0 | 0.00 | 0.00 | 0.00 | 76 | 1018.0 |
| 20260906013404 | 74 | 180 | 2.0 | 5.0 | 0.00 | 0.00 | 0.00 | 77 | 1018.1 |
| 20260906012904 | 74 | 177 | 0.0 | 3.0 | 0.00 | 0.00 | 0.00 | 77 | 1018.2 |
| 20260906012404 | 74 | 177 | 2.0 | 3.0 | 0.00 | 0.00 | 0.00 | 77 | 1018.2 |
| 20260906011904 | 75 | 173 | 1.0 | 3.0 | 0.00 | 0.00 | 0.00 | 77 | 1018.2 |
| 20260906010404 | 75 | 155 | 0.0 | 2.0 | 0.00 | 0.00 | 0.00 | 78 | 1018.3 |
| 20260906005903 | 75 | 155 | 0.0 | 0.0 | 0.00 | 0.00 | 0.00 | 78 | 1018.3 |
| 20260906005404 | 75 | 155 | 0.0 | 0.0 | 0.00 | 0.00 | 0.00 | 78 | 1018.3 |
| 20260906004904 | 75 | 155 | 0.0 | 0.0 | 0.00 | 0.00 | 0.00 | 78 | 1018.3 |
| 20260906004404 | 75 | 155 | 1.0 | 2.0 | 0.00 | 0.00 | 0.00 | 78 | 1018.3 |
| 20260906003904 | 75 | 155 | 1.0 | 3.0 | 0.00 | 0.00 | 0.00 | 78 | 1018.4 |
| 20260906003404 | 75 | 155 | 1.0 | 3.0 | 0.00 | 0.00 | 0.00 | 78 | 1018.5 |
| 20260906002904 | 75 | 155 | 3.0 | 5.0 | 0.00 | 0.00 | 0.00 | 79 | 1018.5 |
| 20260906001404 | 74 | 154 | 1.0 | 3.0 | 0.00 | 0.00 | 0.00 | 79 | 1018.7 |
| 20260906000904 | 74 | 157 | 2.0 | 5.0 | 0.00 | 0.00 | 0.00 | 79 | 1018.8 |
| 20260906000404 | 75 | 148 | 2.0 | 5.0 | 0.00 | 0.00 | 0.00 | 80 | 1018.9 |
| 20260905235904 | 74 | 153 | 3.0 | 7.0 | 0.00 | 0.00 | 0.00 | 80 | 1018.9 |
| 20260905235405 | 74 | 157 | 2.0 | 6.0 | 0.00 | 0.00 | 0.00 | 80 | 1018.9 |
| 20260905234904 | 74 | 148 | 3.0 | 7.0 | 0.00 | 0.00 | 0.00 | 81 | 1019.0 |
| 20260905234404 | 74 | 154 | 2.0 | 3.0 | 0.00 | 0.00 | 0.00 | 81 | 1019.0 |
| 20260905233904 | 74 | 153 | 2.0 | 3.0 | 0.00 | 0.00 | 0.00 | 81 | 1019.0 |
| 20260905233404 | 74 | 157 | 3.0 | 6.0 | 0.00 | 0.00 | 0.00 | 82 | 1019.2 |
| 20260905232904 | 74 | 159 | 3.0 | 7.0 | 0.00 | 0.00 | 0.00 | 83 | 1019.2 |
| 20260905232403 | 74 | 127 | 4.0 | 7.0 | 0.00 | 0.00 | 0.00 | 84 | 1019.2 |
| 20260905231904 | 73 | 114 | 2.0 | 3.0 | 0.00 | 0.00 | 0.00 | 85 | 1019.4 |
| 20260905231404 | 73 | 135 | 1.0 | 3.0 | 0.00 | 0.00 | 0.00 | 86 | 1019.5 |
| 20260905230904 | 73 | 133 | 3.0 | 6.0 | 0.00 | 0.00 | 0.00 | 88 | 1019.5 |
| 20260905230404 | 72 | 152 | 3.0 | 6.0 | 0.00 | 0.00 | 0.00 | 90 | 1019.6 |
| 20260905225904 | 72 | 77 | 2.0 | 3.0 | 0.00 | 0.00 | 0.00 | 90 | 1019.6 |
| 20260905225404 | 72 | 75 | 2.0 | 2.0 | 0.00 | 0.00 | 0.00 | 91 | 1019.6 |
| 20260905224904 | 72 | 74 | 2.0 | 3.0 | 0.00 | 0.00 | 0.00 | 91 | 1019.7 |
| 20260905223404 | 72 | 75 | 2.0 | 3.0 | 0.00 | 0.00 | 0.00 | 91 | 1019.7 |
| 20260905222904 | 72 | 61 | 2.0 | 3.0 | 0.00 | 0.00 | 0.00 | 91 | 1019.9 |
| 20260905222404 | 72 | 42 | 4.0 | 6.0 | 0.00 | 0.00 | 0.00 | 91 | 1020.0 |
| 20260905221904 | 72 | 44 | 5.0 | 6.0 | 0.00 | 0.00 | 0.00 | 90 | 1020.0 |
| 20260905221404 | 72 | 37 | 3.0 | 8.0 | 0.00 | 0.00 | 0.00 | 90 | 1019.9 |
| 20260905220904 | 72 | 35 | 6.0 | 12.0 | 0.00 | 0.00 | 0.00 | 89 | 1020.0 |
| 20260905220404 | 73 | 29 | 5.0 | 9.0 | 0.00 | 0.00 | 0.00 | 88 | 1020.1 |
| 20260905215904 | 73 | 24 | 5.0 | 10.0 | 0.00 | 0.00 | 0.00 | 86 | 1020.1 |
| 20260905215404 | 74 | 16 | 6.0 | 9.0 | 0.00 | 0.00 | 0.00 | 83 | 1020.1 |
| 20260905214904 | 75 | 46 | 2.0 | 9.0 | 0.00 | 0.00 | 0.00 | 79 | 1020.0 |
| 20260905214404 | 75 | 297 | 2.0 | 3.0 | 0.00 | 0.00 | 0.00 | 79 | 1020.0 |
| 20260905213404 | 75 | 163 | 5.0 | 8.0 | 0.00 | 0.00 | 0.00 | 78 | 1019.8 |
| 20260905212904 | 77 | 164 | 5.0 | 8.0 | 0.00 | 0.00 | 0.00 | 74 | 1019.7 |
| 20260905212404 | 77 | 205 | 3.0 | 8.0 | 0.00 | 0.00 | 0.00 | 72 | 1019.5 |
| 20260905211404 | 77 | 305 | 1.0 | 3.0 | 0.00 | 0.00 | 0.00 | 75 | 1019.7 |
| 20260905210904 | 78 | 54 | 2.0 | 5.0 | 0.00 | 0.00 | 0.00 | 73 | 1019.7 |
| 20260905205904 | 78 | 319 | 3.0 | 9.0 | 0.00 | 0.00 | 0.00 | 70 | 1019.8 |
| 20260905205404 | 78 | 48 | 2.0 | 5.0 | 0.00 | 0.00 | 0.00 | 71 | 1019.9 |
| 20260905204404 | 78 | 303 | 10.0 | 14.0 | 0.00 | 0.00 | 0.00 | 69 | 1020.1 |
| 20260905203404 | 78 | 255 | 7.0 | 12.0 | 0.00 | 0.00 | 0.00 | 70 | 1019.9 |
| 20260905202904 | 78 | 297 | 7.0 | 12.0 | 0.00 | 0.00 | 0.00 | 70 | 1019.9 |
| 20260905202404 | 78 | 292 | 10.0 | 14.0 | 0.00 | 0.00 | 0.00 | 71 | 1019.8 |
| 20260905201904 | 78 | 282 | 10.0 | 16.0 | 0.00 | 0.00 | 0.00 | 72 | 1019.8 |
| 20260905201404 | 78 | 262 | 8.0 | 17.0 | 0.00 | 0.00 | 0.00 | 72 | 1019.8 |
| 20260905200904 | 78 | 288 | 13.0 | 21.0 | 0.00 | 0.00 | 0.00 | 73 | 1019.7 |
| 20260905200404 | 78 | 296 | 11.0 | 17.0 | 0.00 | 0.00 | 0.00 | 74 | 1019.8 |
| 20260905195904 | 77 | 305 | 16.0 | 22.0 | 0.00 | 0.00 | 0.00 | 75 | 1019.8 |
| 20260905195404 | 77 | 303 | 13.0 | 20.0 | 0.00 | 0.00 | 0.00 | 79 | 1019.6 |
| 20260905194404 | 75 | 288 | 12.0 | 20.0 | 0.00 | 0.00 | 0.00 | 88 | 1019.3 |
| 20260905193904 | 74 | 284 | 9.0 | 15.0 | 0.00 | 0.00 | 0.00 | 91 | 1019.2 |
| 20260905193404 | 73 | 250 | 5.0 | 13.0 | 0.00 | 0.00 | 0.00 | 91 | 1019.1 |
| 20260905192904 | 73 | 249 | 7.0 | 15.0 | 0.00 | 0.00 | 0.00 | 91 | 1019.1 |
| 20260905191404 | 77 | 244 | 17.0 | 23.0 | 0.00 | 0.00 | 0.00 | 81 | 1018.5 |
| 20260905190904 | 79 | 241 | 7.0 | 14.0 | 0.00 | 0.00 | 0.00 | 74 | 1017.9 |
| 20260905190404 | 81 | 248 | 7.0 | 15.0 | 0.00 | 0.00 | 0.00 | 72 | 1017.7 |
| 20260905185904 | 83 | 252 | 6.0 | 13.0 | 0.00 | 0.00 | 0.00 | 60 | 1017.5 |
| 20260905185404 | 81 | 121 | 2.0 | 7.0 | 0.00 | 0.00 | 0.00 | 66 | 1017.3 |
| 20260905183904 | 75 | 125 | 1.0 | 8.0 | 0.00 | 0.00 | 0.00 | 89 | 1017.4 |
| 20260905182904 | 74 | 52 | 5.0 | 9.0 | 0.00 | 0.00 | 0.00 | 91 | 1017.6 |
| 20260905182404 | 74 | 32 | 6.0 | 12.0 | 0.00 | 0.00 | 0.00 | 91 | 1017.7 |
| 20260905181904 | 74 | 45 | 8.0 | 12.0 | 0.00 | 0.00 | 0.00 | 91 | 1017.6 |
| 20260905181404 | 74 | 51 | 7.0 | 12.0 | 0.00 | 0.00 | 0.00 | 91 | 1017.6 |
| 20260905180904 | 74 | 51 | 5.0 | 12.0 | 0.00 | 0.00 | 0.00 | 91 | 1017.6 |
| 20260905180403 | 74 | 68 | 3.0 | 8.0 | 0.00 | 0.00 | 0.00 | 91 | 1017.6 |
| 20260905175904 | 74 | 46 | 3.0 | 6.0 | 0.00 | 0.00 | 0.00 | 91 | 1017.5 |
| 20260905175404 | 74 | 69 | 5.0 | 8.0 | 0.00 | 0.00 | 0.00 | 91 | 1017.5 |
| 20260905174904 | 74 | 30 | 3.0 | 9.0 | 0.00 | 0.00 | 0.00 | 91 | 1017.5 |
| 20260905174404 | 74 | 28 | 4.0 | 8.0 | 0.00 | 0.00 | 0.00 | 91 | 1017.4 |
| 20260905173904 | 74 | 49 | 5.0 | 10.0 | 0.00 | 0.00 | 0.00 | 91 | 1017.3 |
| 20260905173404 | 74 | 38 | 5.0 | 9.0 | 0.00 | 0.00 | 0.00 | 91 | 1017.3 |
| 20260905172904 | 74 | 64 | 5.0 | 10.0 | 0.00 | 0.00 | 0.00 | 90 | 1017.2 |
| 20260905172404 | 74 | 63 | 6.0 | 9.0 | 0.00 | 0.00 | 0.00 | 90 | 1017.0 |
| 20260905171404 | 74 | 56 | 4.0 | 10.0 | 0.00 | 0.00 | 0.00 | 90 | 1017.0 |
| 20260905170904 | 74 | 39 | 7.0 | 12.0 | 0.00 | 0.00 | 0.00 | 89 | 1017.1 |
| 20260905170403 | 75 | 35 | 5.0 | 10.0 | 0.00 | 0.00 | 0.00 | 89 | 1017.1 |
| 20260905165904 | 75 | 53 | 6.0 | 10.0 | 0.00 | 0.00 | 0.00 | 89 | 1017.1 |
| 20260905164904 | 75 | 61 | 8.0 | 13.0 | 0.00 | 0.00 | 0.00 | 89 | 1016.9 |
| 20260905164404 | 75 | 63 | 5.0 | 10.0 | 0.00 | 0.00 | 0.00 | 89 | 1017.0 |
| 20260905163904 | 75 | 50 | 7.0 | 12.0 | 0.00 | 0.00 | 0.00 | 89 | 1017.0 |
| 20260905162903 | 75 | 69 | 8.0 | 12.0 | 0.00 | 0.00 | 0.00 | 87 | 1017.1 |
| 20260905162404 | 76 | 77 | 6.0 | 12.0 | 0.00 | 0.00 | 0.00 | 87 | 1017.1 |
| 20260905161904 | 76 | 69 | 6.0 | 10.0 | 0.00 | 0.00 | 0.00 | 86 | 1017.1 |
| 20260905161403 | 77 | 77 | 6.0 | 9.0 | 0.00 | 0.00 | 0.00 | 85 | 1017.0 |
| 20260905160404 | 78 | 45 | 4.0 | 9.0 | 0.00 | 0.00 | 0.00 | 84 | 1017.1 |
| 20260905155904 | 78 | 67 | 4.0 | 7.0 | 0.00 | 0.00 | 0.00 | 83 | 1017.2 |
| 20260905155404 | 78 | 45 | 3.0 | 8.0 | 0.00 | 0.00 | 0.00 | 83 | 1017.3 |
| 20260905154404 | 79 | 77 | 2.0 | 8.0 | 0.00 | 0.00 | 0.00 | 81 | 1017.2 |
| 20260905153904 | 79 | 69 | 2.0 | 6.0 | 0.00 | 0.00 | 0.00 | 81 | 1017.2 |
| 20260905153404 | 79 | 84 | 4.0 | 7.0 | 0.00 | 0.00 | 0.00 | 80 | 1017.2 |
| 20260905152904 | 80 | 11 | 3.0 | 5.0 | 0.00 | 0.00 | 0.00 | 79 | 1017.2 |
| 20260905152404 | 79 | 4 | 3.0 | 7.0 | 0.00 | 0.00 | 0.00 | 79 | 1017.2 |
| 20260905151404 | 80 | 63 | 3.0 | 5.0 | 0.00 | 0.00 | 0.00 | 80 | 1017.3 |
| 20260905150904 | 79 | 74 | 3.0 | 5.0 | 0.00 | 0.00 | 0.00 | 80 | 1017.3 |
| 20260905150404 | 79 | 28 | 2.0 | 5.0 | 0.00 | 0.00 | 0.00 | 80 | 1017.3 |
| 20260905145904 | 79 | 28 | 5.0 | 8.0 | 0.00 | 0.00 | 0.00 | 80 | 1017.3 |
| 20260905145404 | 79 | 52 | 4.0 | 8.0 | 0.00 | 0.00 | 0.00 | 80 | 1017.3 |
| 20260905144904 | 79 | 62 | 4.0 | 6.0 | 0.00 | 0.00 | 0.00 | 80 | 1017.3 |
| 20260905144404 | 79 | 62 | 4.0 | 6.0 | 0.00 | 0.00 | 0.00 | 80 | 1017.3 |
| 20260905143904 | 80 | 19 | 5.0 | 10.0 | 0.00 | 0.00 | 0.00 | 79 | 1017.3 |
| 20260905143403 | 80 | 25 | 5.0 | 10.0 | 0.00 | 0.00 | 0.00 | 80 | 1017.4 |
| 20260905142404 | 79 | 68 | 5.0 | 9.0 | 0.00 | 0.00 | 0.00 | 79 | 1017.4 |
| 20260905141404 | 79 | 78 | 9.0 | 12.0 | 0.00 | 0.00 | 0.00 | 78 | 1017.5 |
| 20260905140904 | 79 | 84 | 6.0 | 12.0 | 0.00 | 0.00 | 0.00 | 78 | 1017.5 |
| 20260905140406 | 79 | 49 | 4.0 | 8.0 | 0.00 | 0.00 | 0.00 | 78 | 1017.6 |
| 20260905135905 | 79 | 31 | 5.0 | 12.0 | 0.00 | 0.00 | 0.00 | 79 | 1017.7 |
| 20260905135404 | 79 | 42 | 7.0 | 13.0 | 0.00 | 0.00 | 0.00 | 79 | 1017.8 |
| 20260905134404 | 79 | 82 | 3.0 | 12.0 | 0.00 | 0.00 | 0.00 | 80 | 1017.9 |
| 20260905133903 | 78 | 57 | 10.0 | 13.0 | 0.00 | 0.00 | 0.00 | 79 | 1017.9 |
| 20260905133404 | 79 | 41 | 7.0 | 13.0 | 0.00 | 0.00 | 0.00 | 80 | 1017.9 |
| 20260905132904 | 78 | 56 | 3.0 | 12.0 | 0.00 | 0.00 | 0.00 | 81 | 1017.9 |
| 20260905132404 | 78 | 41 | 12.0 | 15.0 | 0.00 | 0.00 | 0.00 | 80 | 1017.9 |
| 20260905131904 | 78 | 29 | 7.0 | 12.0 | 0.00 | 0.00 | 0.00 | 81 | 1018.1 |
| 20260905131404 | 77 | 69 | 5.0 | 12.0 | 0.00 | 0.00 | 0.00 | 82 | 1018.1 |
| 20260905130904 | 77 | 81 | 5.0 | 10.0 | 0.00 | 0.00 | 0.00 | 83 | 1018.2 |
| 20260905130404 | 77 | 59 | 7.0 | 13.0 | 0.00 | 0.00 | 0.00 | 83 | 1018.3 |
| 20260905125904 | 77 | 71 | 5.0 | 12.0 | 0.00 | 0.00 | 0.00 | 82 | 1018.4 |
| 20260905125404 | 77 | 90 | 6.0 | 10.0 | 0.00 | 0.00 | 0.00 | 83 | 1018.5 |
| 20260905124404 | 76 | 93 | 4.0 | 8.0 | 0.00 | 0.00 | 0.00 | 85 | 1018.4 |
| 20260905123904 | 76 | 83 | 5.0 | 10.0 | 0.00 | 0.00 | 0.00 | 84 | 1018.5 |
| 20260905122904 | 76 | 60 | 8.0 | 12.0 | 0.00 | 0.00 | 0.00 | 85 | 1018.7 |
| 20260905122404 | 75 | 84 | 5.0 | 10.0 | 0.00 | 0.00 | 0.00 | 85 | 1018.8 |
| 20260905120404 | 75 | 46 | 11.0 | 16.0 | 0.00 | 0.00 | 0.00 | 87 | 1019.0 |
| 20260905115904 | 74 | 33 | 5.0 | 12.0 | 0.00 | 0.00 | 0.00 | 87 | 1019.2 |
| 20260905115404 | 74 | 49 | 6.0 | 12.0 | 0.00 | 0.00 | 0.00 | 88 | 1019.3 |
| 20260905114904 | 74 | 54 | 6.0 | 12.0 | 0.00 | 0.00 | 0.00 | 89 | 1019.4 |
| 20260905113904 | 73 | 63 | 6.0 | 12.0 | 0.00 | 0.00 | 0.00 | 90 | 1019.4 |
| 20260905113404 | 73 | 34 | 6.0 | 15.0 | 0.00 | 0.00 | 0.00 | 91 | 1019.5 |
| 20260905112904 | 72 | 61 | 7.0 | 12.0 | 0.00 | 0.00 | 0.00 | 92 | 1019.6 |
| 20260905112404 | 72 | 45 | 6.0 | 12.0 | 0.00 | 0.00 | 0.00 | 93 | 1019.6 |
| 20260905111904 | 72 | 18 | 5.0 | 10.0 | 0.00 | 0.00 | 0.00 | 93 | 1019.8 |
| 20260905111404 | 72 | 32 | 6.0 | 12.0 | 0.00 | 0.00 | 0.00 | 94 | 1020.0 |
| 20260905110404 | 71 | 33 | 3.0 | 12.0 | 0.00 | 0.00 | 0.00 | 96 | 1020.1 |
| 20260905105404 | 70 | 38 | 5.0 | 12.0 | 0.00 | 0.00 | 0.00 | 98 | 1020.2 |
| 20260905104904 | 70 | 40 | 7.0 | 14.0 | 0.00 | 0.00 | 0.00 | 98 | 1020.2 |
| 20260905104404 | 69 | 70 | 6.0 | 12.0 | 0.00 | 0.00 | 0.00 | 99 | 1020.3 |
| 20260905103908 | 69 | 47 | 6.0 | 12.0 | 0.00 | 0.00 | 0.00 | 99 | 1020.4 |
| 20260905103404 | 69 | 20 | 6.0 | 12.0 | 0.00 | 0.00 | 0.00 | 100 | 1020.6 |
| 20260905102904 | 69 | 56 | 6.0 | 12.0 | 0.00 | 0.00 | 0.00 | 100 | 1020.6 |
| 20260905102404 | 68 | 33 | 6.0 | 10.0 | 0.00 | 0.00 | 0.00 | 100 | 1020.6 |
| 20260905101957 | 68 | 44 | 2.0 | 12.0 | 0.00 | 0.00 | 0.00 | 100 | 1020.8 |
| 20260905101405 | 68 | 33 | 6.0 | 9.0 | 0.00 | 0.00 | 0.00 | 100 | 1020.8 |
| 20260905100905 | 68 | 83 | 2.0 | 5.0 | 0.00 | 0.00 | 0.00 | 100 | 1020.8 |
| 20260905100405 | 68 | 75 | 2.0 | 9.0 | 0.00 | 0.00 | 0.00 | 100 | 1020.9 |
| 20260905095404 | 67 | 40 | 4.0 | 12.0 | 0.00 | 0.00 | 0.00 | 100 | 1021.1 |
| 20260905094904 | 67 | 58 | 2.0 | 8.0 | 0.00 | 0.00 | 0.00 | 100 | 1021.1 |
| 20260905094404 | 67 | 45 | 1.0 | 8.0 | 0.00 | 0.00 | 0.00 | 100 | 1021.1 |
| 20260905093904 | 67 | 71 | 5.0 | 9.0 | 0.00 | 0.00 | 0.00 | 100 | 1021.0 |
| 20260905093404 | 67 | 50 | 3.0 | 8.0 | 0.00 | 0.00 | 0.00 | 100 | 1021.1 |
| 20260905092904 | 67 | 64 | 4.0 | 12.0 | 0.00 | 0.00 | 0.00 | 100 | 1021.1 |
| 20260905092404 | 67 | 59 | 5.0 | 10.0 | 0.00 | 0.00 | 0.00 | 100 | 1021.0 |
| 20260905091904 | 67 | 70 | 3.0 | 8.0 | 0.00 | 0.00 | 0.00 | 100 | 1021.0 |
| 20260905091403 | 67 | 74 | 3.0 | 7.0 | 0.00 | 0.00 | 0.00 | 100 | 1021.1 |
| 20260905090904 | 67 | 75 | 4.0 | 9.0 | 0.00 | 0.00 | 0.00 | 100 | 1021.2 |
| 20260905090404 | 67 | 100 | 3.0 | 6.0 | 0.00 | 0.00 | 0.00 | 100 | 1021.2 |
| 20260905085903 | 67 | 67 | 3.0 | 6.0 | 0.00 | 0.00 | 0.00 | 100 | 1021.1 |
| 20260905085404 | 67 | 79 | 2.0 | 6.0 | 0.00 | 0.00 | 0.00 | 100 | 1021.1 |
| 20260905084904 | 67 | 64 | 5.0 | 9.0 | 0.00 | 0.00 | 0.00 | 100 | 1021.2 |
| 20260905084404 | 67 | 62 | 4.0 | 9.0 | 0.00 | 0.00 | 0.00 | 100 | 1021.2 |
| 20260905083903 | 67 | 74 | 2.0 | 5.0 | 0.00 | 0.00 | 0.00 | 100 | 1021.3 |
| 20260905083404 | 67 | 79 | 2.0 | 7.0 | 0.00 | 0.00 | 0.00 | 100 | 1021.4 |
| 20260905082904 | 67 | 56 | 3.0 | 7.0 | 0.00 | 0.00 | 0.00 | 100 | 1021.3 |
| 20260905082404 | 67 | 57 | 5.0 | 8.0 | 0.00 | 0.00 | 0.00 | 100 | 1021.3 |
| 20260905081904 | 67 | 70 | 5.0 | 8.0 | 0.00 | 0.00 | 0.00 | 100 | 1021.3 |
| 20260905081404 | 67 | 71 | 4.0 | 7.0 | 0.00 | 0.00 | 0.00 | 100 | 1021.2 |
| 20260905075904 | 67 | 77 | 5.0 | 10.0 | 0.00 | 0.00 | 0.00 | 100 | 1021.1 |
| 20260905075409 | 67 | 112 | 5.0 | 9.0 | 0.00 | 0.00 | 0.00 | 100 | 1021.3 |
| 20260905074904 | 67 | 91 | 2.0 | 7.0 | 0.00 | 0.00 | 0.00 | 100 | 1021.4 |
| 20260905074403 | 67 | 47 | 1.0 | 6.0 | 0.00 | 0.00 | 0.00 | 100 | 1021.3 |
| 20260905073904 | 67 | 54 | 3.0 | 7.0 | 0.00 | 0.00 | 0.00 | 100 | 1021.3 |
| 20260905072904 | 67 | 28 | 2.0 | 7.0 | 0.00 | 0.00 | 0.00 | 100 | 1021.3 |
| 20260905072404 | 67 | 27 | 2.0 | 6.0 | 0.00 | 0.00 | 0.00 | 100 | 1021.3 |
| 20260905071904 | 67 | 24 | 4.0 | 8.0 | 0.00 | 0.00 | 0.00 | 100 | 1021.2 |
| 20260905071404 | 67 | 5 | 3.0 | 6.0 | 0.00 | 0.00 | 0.00 | 100 | 1021.5 |
| 20260905070904 | 67 | 29 | 5.0 | 9.0 | 0.00 | 0.00 | 0.00 | 100 | 1021.5 |
| 20260905070404 | 67 | 15 | 2.0 | 9.0 | 0.00 | 0.00 | 0.00 | 100 | 1021.4 |
| 20260905065404 | 67 | 22 | 1.0 | 3.0 | 0.00 | 0.00 | 0.00 | 100 | 1021.6 |
| 20260905064904 | 67 | 24 | 0.0 | 0.0 | 0.00 | 0.00 | 0.00 | 100 | 1021.4 |
| 20260905064404 | 67 | 24 | 0.0 | 3.0 | 0.00 | 0.00 | 0.00 | 100 | 1021.3 |
| 20260905063904 | 67 | 24 | 0.0 | 2.0 | 0.00 | 0.00 | 0.00 | 100 | 1021.0 |
| 20260905063404 | 67 | 24 | 2.0 | 3.0 | 0.00 | 0.00 | 0.00 | 100 | 1020.9 |
| 20260905062916 | 67 | 63 | 0.0 | 1.0 | 0.00 | 0.00 | 0.00 | 100 | 1021.0 |
| 20260905062405 | 67 | 63 | 0.0 | 1.0 | 0.00 | 0.00 | 0.00 | 100 | 1021.0 |
| 20260905061904 | 67 | 63 | 1.0 | 2.0 | 0.00 | 0.00 | 0.00 | 100 | 1020.9 |
| 20260905061404 | 67 | 63 | 1.0 | 2.0 | 0.00 | 0.00 | 0.00 | 100 | 1020.7 |
| 20260905060903 | 67 | 63 | 1.0 | 2.0 | 0.00 | 0.00 | 0.00 | 100 | 1020.6 |
| 20260905060404 | 67 | 63 | 0.0 | 2.0 | 0.00 | 0.00 | 0.00 | 100 | 1020.7 |
| 20260905055404 | 67 | 63 | 1.0 | 3.0 | 0.00 | 0.00 | 0.00 | 100 | 1020.7 |
| 20260905054903 | 67 | 63 | 0.0 | 2.0 | 0.00 | 0.00 | 0.00 | 100 | 1020.7 |
| 20260905054404 | 67 | 63 | 1.0 | 2.0 | 0.00 | 0.00 | 0.00 | 100 | 1020.6 |
| 20260905053904 | 67 | 64 | 0.0 | 2.0 | 0.00 | 0.00 | 0.00 | 100 | 1020.7 |
| 20260905053404 | 67 | 64 | 0.0 | 2.0 | 0.00 | 0.00 | 0.00 | 100 | 1020.6 |
| 20260905052904 | 67 | 64 | 0.0 | 0.0 | 0.00 | 0.00 | 0.00 | 100 | 1020.7 |
| 20260905051904 | 67 | 64 | 0.0 | 2.0 | 0.00 | 0.00 | 0.00 | 100 | 1020.7 |
| 20260905051404 | 67 | 64 | 1.0 | 3.0 | 0.00 | 0.00 | 0.00 | 100 | 1020.6 |
| 20260905050904 | 67 | 63 | 1.0 | 3.0 | 0.00 | 0.00 | 0.00 | 100 | 1020.7 |
| 20260905045904 | 67 | 64 | 1.0 | 3.0 | 0.00 | 0.00 | 0.00 | 100 | 1020.7 |
| 20260905045404 | 67 | 63 | 2.0 | 3.0 | 0.00 | 0.00 | 0.00 | 100 | 1020.7 |
| 20260905044904 | 67 | 63 | 1.0 | 3.0 | 0.00 | 0.00 | 0.00 | 100 | 1020.7 |
| 20260905044404 | 67 | 62 | 2.0 | 3.0 | 0.00 | 0.00 | 0.00 | 100 | 1020.7 |
| 20260905043904 | 66 | 61 | 2.0 | 5.0 | 0.00 | 0.00 | 0.00 | 100 | 1020.7 |
| 20260905043404 | 67 | 53 | 2.0 | 5.0 | 0.00 | 0.00 | 0.00 | 100 | 1020.8 |
| 20260905041905 | 67 | 84 | 2.0 | 3.0 | 0.00 | 0.00 | 0.00 | 100 | 1021.0 |
| 20260905041404 | 67 | 44 | 2.0 | 3.0 | 0.00 | 0.00 | 0.00 | 100 | 1021.0 |
| 20260905040904 | 67 | 41 | 1.0 | 5.0 | 0.00 | 0.00 | 0.00 | 100 | 1021.0 |
| 20260905040404 | 67 | 32 | 2.0 | 5.0 | 0.00 | 0.00 | 0.00 | 100 | 1020.9 |
| 20260905035404 | 67 | 60 | 3.0 | 6.0 | 0.00 | 0.00 | 0.00 | 100 | 1021.0 |
| 20260905034904 | 67 | 61 | 2.0 | 3.0 | 0.00 | 0.00 | 0.00 | 100 | 1021.0 |
| 20260905034404 | 67 | 73 | 2.0 | 3.0 | 0.00 | 0.00 | 0.00 | 100 | 1021.0 |
| 20260905033904 | 67 | 79 | 2.0 | 5.0 | 0.00 | 0.00 | 0.00 | 100 | 1021.0 |
| 20260905033404 | 67 | 55 | 3.0 | 5.0 | 0.00 | 0.00 | 0.00 | 100 | 1020.9 |
| 20260905032904 | 67 | 48 | 1.0 | 3.0 | 0.00 | 0.00 | 0.00 | 100 | 1020.9 |
| 20260905032404 | 67 | 46 | 2.0 | 3.0 | 0.00 | 0.00 | 0.00 | 100 | 1020.9 |
| 20260905031904 | 67 | 51 | 1.0 | 3.0 | 0.00 | 0.00 | 0.00 | 100 | 1021.0 |
| 20260905031404 | 66 | 49 | 3.0 | 5.0 | 0.00 | 0.00 | 0.00 | 100 | 1020.9 |
| 20260905030904 | 67 | 46 | 3.0 | 5.0 | 0.00 | 0.00 | 0.00 | 100 | 1021.0 |
| 20260905025404 | 67 | 71 | 1.0 | 3.0 | 0.00 | 0.00 | 0.00 | 100 | 1021.0 |